Home   Weather   Moldova   Chișinău   Past weeks
Flag for Moldova

Past Weather in Chișinău, Moldova — Yesterday and Last 2 Weeks

Currently: 46 °F. Low clouds. (Weather station: Chisinau International Airport, Moldova). See more current weather

Past Weather in Chișinău — Graph

°F

Chișinău Temperature Yesterday

Maximum temperature yesterday: 61 °F (at 1:30 pm)
Minimum temperature yesterday: 39 °F (at 12:00 am)
Average temperature yesterday: 49 °F

High & Low Weather Summary for the Past Weeks

 TemperatureHumidityPressure
High66 °F (Feb 11, 2:30 pm)100% (Feb 9, 8:30 am)30.42 "Hg (Feb 9, 8:30 am)
Low30 °F (Feb 20, 12:00 am)39% (Feb 9, 3:30 pm)29.59 "Hg (Feb 9, 1:30 pm)
Average43 °F79%30.01 "Hg
* Reported Feb 9 8:00 am — Feb 24 8:30 am, Chișinău. Weather by CustomWeather, © 2024

Note: Actual official high and low records may vary slightly from our data, if they occured in-between our weather recording intervals... More about our weather records

Chișinău Weather History for the Previous 24 Hours

Scroll right to see more
 ConditionsComfort  
Time TempWeatherWind HumidityBarometerVisibility
8:30 am
Sat, Feb 24
46 °FLow clouds.7 mph93%29.98 "Hg4 mi
8:00 am45 °FFog.10 mph93%29.98 "Hg3 mi
7:30 am45 °FFog.13 mph93%29.98 "Hg3 mi
7:00 am45 °FFog.9 mph93%29.98 "Hg3 mi
6:30 am45 °FLow clouds.9 mph93%29.98 "Hg5 mi
6:00 am45 °FLow clouds.13 mph93%29.98 "Hg5 mi
5:30 am45 °FLow clouds.13 mph93%29.98 "Hg6 mi
5:00 am45 °FLow clouds.15 mph93%29.95 "Hg6 mi
4:30 am45 °FLow clouds.14 mph93%29.95 "Hg6 mi
4:00 am45 °FLow clouds.13 mph93%29.95 "HgN/A
3:30 am45 °FLow clouds.12 mph93%29.95 "Hg6 mi
3:00 am45 °FLow clouds.9 mph93%29.95 "Hg4 mi
1:30 am45 °FLow clouds.8 mph93%29.95 "Hg4 mi
1:00 am45 °FLow clouds.9 mph93%29.98 "Hg4 mi
12:30 am45 °FLow clouds.7 mph93%29.95 "Hg4 mi
12:00 am45 °FPassing clouds.8 mph87%29.95 "Hg4 mi
11:30 pm
Fri, Feb 23
43 °FPassing clouds.7 mph93%29.95 "Hg4 mi
11:00 pm45 °FPassing clouds.6 mph87%29.95 "Hg5 mi
10:30 pm45 °FPassing clouds.5 mph93%29.95 "Hg6 mi
10:00 pm46 °FPassing clouds.7 mph87%29.95 "Hg6 mi
9:30 pm46 °FPassing clouds.8 mph87%29.95 "HgN/A
9:00 pm46 °FPassing clouds.6 mph87%29.95 "HgN/A
8:30 pm46 °FPassing clouds.7 mph87%29.95 "HgN/A
8:00 pm48 °FClear.10 mph82%29.95 "Hg10 mi
7:30 pm50 °FClear.16 mph76%29.95 "Hg10 mi
7:00 pm50 °FClear.15 mph76%29.95 "Hg10 mi
6:30 pm52 °FClear.17 mph72%29.92 "Hg10 mi
6:00 pm54 °FClear.16 mph67%29.92 "Hg10 mi
5:30 pm55 °FSunny.10 mph55%29.89 "Hg10 mi
5:00 pm57 °FSunny.13 mph48%29.89 "Hg10 mi
4:30 pm59 °FSunny.14 mph45%29.89 "Hg10 mi
4:00 pm61 °FSunny.14 mph42%29.89 "Hg10 mi
3:30 pm59 °FSunny.14 mph48%29.89 "Hg10 mi
3:00 pm61 °FSunny.16 mph42%29.89 "Hg10 mi
2:30 pm61 °FSunny.17 mph45%29.89 "Hg10 mi
2:00 pm61 °FSunny.15 mph48%29.89 "Hg10 mi
1:30 pm61 °FSunny.20 mph48%29.89 "Hg10 mi
1:00 pm59 °FSunny.18 mph55%29.89 "Hg10 mi
12:30 pm57 °FSunny.18 mph59%29.89 "Hg10 mi
12:00 pm55 °FSunny.16 mph63%29.89 "Hg10 mi
11:30 am55 °FSunny.15 mph63%29.92 "Hg10 mi
11:00 am52 °FPassing clouds.14 mph72%29.92 "HgN/A
10:30 am48 °FPassing clouds.12 mph82%29.92 "HgN/A
10:00 am48 °FScattered clouds.13 mph82%29.92 "HgN/A
9:30 am46 °FPartly sunny.10 mph82%29.92 "HgN/A
9:00 am45 °FPartly sunny.9 mph87%29.92 "Hg6 mi
Weather by CustomWeather, © 2024

See weather overview